Weather History for KSHD - December, 2013

Change the Weather History Date:

Saturday, December 21, 2013

  Actual Average (KCHO) Record (KCHO)
Temperature  
Mean Temperature 56 °F 36 °F  
Max Temperature 68 °F 45 °F 74 °F (1923)
Min Temperature 43 °F 27 °F 7 °F (1901)
Degree Days  
Heating Degree Days 10 29  
Month to date heating degree days 551  
Since 1 July heating degree days 1442  
Cooling Degree Days 0 0  
Month to date cooling degree days 0  
Year to date cooling degree days 1035  
Growing Degree Days 6 (Base 50)    
Moisture  
Dew Point 45 °F    
Average Humidity 60    
Maximum Humidity 72    
Minimum Humidity 48    
Precipitation  
Precipitation 0.00 in 0.10 in 2.41 in (1973)
Month to date precipitation 2.36  
Year to date precipitation 41.92  
Sea Level Pressure  
Sea Level Pressure 30.00 in    
Wind  
Wind Speed 6 mph (SSW)    
Max Wind Speed 22 mph    
Max Gust Speed 29 mph    
Visibility 10 miles    
Events      
T = Trace of Precipitation, MM = Missing Value Source: NWS Daily Summary

Daily Weather History Graph

Daily Weather History Graph

Search for Another Location

Airport or City:

Trip Planner

Search our weather history database for the weather conditions in past years. The results will help you decide how hot, cold, wet, or windy it might be!

Date:

Astronomy

Dec. 21, 2013 Rise Set
Actual Time 7:28 AM EST 4:58 PM EST
Civil Twilight 6:59 AM EST 5:28 PM EST
Nautical Twilight 6:25 AM EST 6:01 PM EST
Astronomical Twilight 5:53 AM EST 6:33 PM EST
Moon 9:10 PM EST (12/21) 9:56 AM EST (12/21)
Length of Visible Light 10h 29m
Length of Day
9h 30m
Waning Gibbous, 84% of the Moon is Illuminated
Dec 21
Waning Gibbous
Dec 25
Last Quarter
Jan 1
New
Jan 7
First Quarter
Jan 15
Full

Hourly Weather History & Observations

Time (EST) Temp. Windchill Dew Point Humidity Pressure Visibility Wind Dir Wind Speed Gust Speed Precip Events Conditions
12:15 AM 48.2 °F - 34.5 °F 59% 30.06 in 10.0 mi SSE 4.6 mph - N/A   Clear
12:35 AM 48.4 °F - 34.0 °F 58% 30.06 in 10.0 mi Calm Calm - N/A   Clear
12:55 AM 49.6 °F - 34.0 °F 55% 30.05 in 10.0 mi SSE 3.5 mph - N/A   Clear
1:15 AM 47.7 °F - 34.0 °F 59% 30.05 in 10.0 mi Calm Calm - N/A   Clear
1:35 AM 48.9 °F - 34.0 °F 56% 30.05 in 10.0 mi Calm Calm - N/A   Scattered Clouds
1:55 AM 48.4 °F - 34.2 °F 58% 30.04 in 10.0 mi South 3.5 mph - N/A   Scattered Clouds
2:15 AM 47.1 °F - 33.8 °F 60% 30.03 in 10.0 mi Calm Calm - N/A   Clear
2:35 AM 46.4 °F - 33.8 °F 62% 30.04 in 10.0 mi Calm Calm - N/A   Clear
2:55 AM 43.3 °F 40.7 °F 33.8 °F 69% 30.04 in 10.0 mi WSW 4.6 mph - N/A   Scattered Clouds
3:15 AM 45.9 °F 44.6 °F 34.2 °F 64% 30.04 in 10.0 mi SW 3.5 mph - N/A   Overcast
3:35 AM 46.4 °F 43.5 °F 34.9 °F 64% 30.04 in 10.0 mi SSW 5.8 mph - N/A   Overcast
3:55 AM 48.2 °F - 35.1 °F 60% 30.04 in 10.0 mi SSW 3.5 mph - N/A   Overcast
4:15 AM 49.3 °F - 35.1 °F 58% 30.03 in 10.0 mi Calm Calm - N/A   Overcast
4:35 AM 49.5 °F - 35.4 °F 58% 30.03 in 10.0 mi Calm Calm - N/A   Mostly Cloudy
4:55 AM 49.6 °F - 35.2 °F 58% 30.03 in 10.0 mi Calm Calm - N/A   Mostly Cloudy
5:15 AM 50.2 °F - 35.6 °F 57% 30.04 in 10.0 mi South 4.6 mph - N/A   Mostly Cloudy
5:35 AM 51.4 °F - 35.6 °F 55% 30.04 in 10.0 mi SSE 5.8 mph - N/A   Overcast
5:55 AM 50.7 °F - 35.6 °F 56% 30.04 in 10.0 mi South 4.6 mph - N/A   Mostly Cloudy
6:15 AM 50.2 °F - 35.6 °F 57% 30.04 in 10.0 mi South 3.5 mph - N/A   Mostly Cloudy
6:35 AM 50.4 °F - 35.8 °F 57% 30.03 in 10.0 mi SSE 3.5 mph - N/A   Overcast
6:55 AM 50.7 °F - 36.0 °F 57% 30.04 in 10.0 mi Calm Calm - N/A   Overcast
7:15 AM 51.1 °F - 36.5 °F 57% 30.04 in 10.0 mi South 5.8 mph - N/A   Overcast
7:35 AM 52.2 °F - 36.1 °F 54% 30.04 in 10.0 mi South 3.5 mph - N/A   Overcast
7:55 AM 52.7 °F - 36.5 °F 54% 30.04 in 10.0 mi South 4.6 mph - N/A   Overcast
8:15 AM 52.3 °F - 36.7 °F 55% 30.04 in 10.0 mi South 4.6 mph - N/A   Overcast
8:35 AM 53.4 °F - 37.4 °F 55% 30.04 in 10.0 mi South 3.5 mph - N/A   Mostly Cloudy
8:55 AM 53.8 °F - 37.9 °F 55% 30.04 in 10.0 mi Calm Calm - N/A   Scattered Clouds
9:15 AM 53.1 °F - 38.8 °F 59% 30.04 in 10.0 mi South 3.5 mph - N/A   Clear
9:35 AM 56.7 °F - 40.3 °F 54% 30.04 in 10.0 mi South 4.6 mph - N/A   Clear
9:55 AM 58.8 °F - 41.7 °F 53% 30.04 in 10.0 mi South 5.8 mph - N/A   Clear
10:15 AM 60.8 °F - 43.5 °F 53% 30.04 in 10.0 mi SSW 5.8 mph - N/A   Clear
10:35 AM 63.1 °F - 45.1 °F 52% 30.03 in 10.0 mi WSW 10.4 mph 17.3 mph N/A   Clear
10:55 AM 65.7 °F - 46.0 °F 49% 30.03 in 10.0 mi SW 12.7 mph 23.0 mph N/A   Clear
11:15 AM 64.9 °F - 46.4 °F 51% 30.03 in 10.0 mi SSW 15.0 mph 23.0 mph N/A   Clear
11:35 AM 64.9 °F - 46.9 °F 52% 30.01 in 10.0 mi SW 18.4 mph 24.2 mph N/A   Clear
11:55 AM 65.1 °F - 47.7 °F 53% 30.00 in 10.0 mi SSW 15.0 mph 23.0 mph N/A   Clear
12:15 PM 66.2 °F - 48.2 °F 52% 29.98 in 10.0 mi SW 17.3 mph 23.0 mph N/A   Clear
12:35 PM 67.3 °F - 48.7 °F 51% 29.98 in 10.0 mi SW 20.7 mph 24.2 mph N/A   Clear
12:55 PM 67.5 °F - 48.6 °F 51% 29.96 in 10.0 mi SSW 16.1 mph 24.2 mph N/A   Clear
1:15 PM 67.8 °F - 48.2 °F 49% 29.96 in 10.0 mi SW 12.7 mph 28.8 mph N/A   Clear
1:35 PM 68.0 °F - 47.7 °F 48% 29.95 in 10.0 mi SSW 18.4 mph 26.5 mph N/A   Clear
1:55 PM 67.8 °F - 48.7 °F 50% 29.96 in 10.0 mi SW 21.9 mph 28.8 mph N/A   Clear
2:15 PM 67.6 °F - 49.3 °F 52% 29.96 in 10.0 mi SW 21.9 mph 26.5 mph N/A   Clear
2:35 PM 68.2 °F - 49.5 °F 51% 29.96 in 10.0 mi SW 19.6 mph 27.6 mph N/A   Clear
2:55 PM 68.2 °F - 50.0 °F 52% 29.95 in 10.0 mi SSW 15.0 mph 24.2 mph N/A   Clear
3:15 PM 67.3 °F - 50.0 °F 54% 29.96 in 10.0 mi South 11.5 mph 18.4 mph N/A   Clear
3:35 PM 67.1 °F - 50.7 °F 56% 29.95 in 10.0 mi SW 19.6 mph 26.5 mph N/A   Clear
3:55 PM 66.2 °F - 50.9 °F 58% 29.96 in 10.0 mi SSW 12.7 mph 18.4 mph N/A   Clear
4:15 PM 65.7 °F - 51.3 °F 60% 29.96 in 10.0 mi SSW 13.8 mph 19.6 mph N/A   Clear
4:35 PM 65.3 °F - 51.6 °F 61% 29.97 in 10.0 mi SSW 11.5 mph - N/A   Clear
4:55 PM 64.0 °F - 52.0 °F 65% 29.97 in 10.0 mi South 10.4 mph - N/A   Clear
5:15 PM 63.7 °F - 52.2 °F 66% 29.97 in 10.0 mi SSW 10.4 mph - N/A   Mostly Cloudy
5:35 PM 63.7 °F - 52.5 °F 67% 29.98 in 10.0 mi South 10.4 mph - N/A   Mostly Cloudy
5:55 PM 63.5 °F - 52.7 °F 68% 29.98 in 10.0 mi South 9.2 mph - N/A   Scattered Clouds
6:15 PM 63.7 °F - 53.1 °F 68% 29.97 in 10.0 mi South 9.2 mph - N/A   Scattered Clouds
6:35 PM 63.9 °F - 53.6 °F 69% 29.97 in 10.0 mi South 9.2 mph - N/A   Mostly Cloudy
6:55 PM 64.0 °F - 53.6 °F 69% 29.98 in 10.0 mi SSW 8.1 mph - N/A   Overcast
7:15 PM 63.5 °F - 53.6 °F 70% 29.98 in 10.0 mi South 6.9 mph - N/A   Overcast
7:35 PM 62.8 °F - 53.4 °F 71% 29.98 in 10.0 mi South 5.8 mph - N/A   Overcast
7:55 PM 63.9 °F - 53.6 °F 69% 29.99 in 10.0 mi SSW 8.1 mph - N/A   Overcast
8:15 PM 64.4 °F - 53.8 °F 68% 29.99 in 10.0 mi South 5.8 mph - N/A   Overcast
8:35 PM 64.9 °F - 54.0 °F 68% 29.99 in 10.0 mi SSW 6.9 mph - N/A   Overcast
8:55 PM 64.4 °F - 54.0 °F 69% 29.98 in 10.0 mi SSW 3.5 mph - N/A   Overcast
9:15 PM 65.7 °F - 54.5 °F 67% 29.98 in 10.0 mi SSW 12.7 mph 20.7 mph N/A   Overcast
9:35 PM 66.0 °F - 54.3 °F 66% 29.98 in 10.0 mi SSW 12.7 mph 19.6 mph N/A   Mostly Cloudy
9:55 PM 66.4 °F - 54.5 °F 66% 29.97 in 10.0 mi SSW 16.1 mph 21.9 mph N/A   Mostly Cloudy
10:15 PM 66.4 °F - 54.7 °F 66% 29.96 in 10.0 mi SSW 15.0 mph 20.7 mph N/A   Mostly Cloudy
10:35 PM 66.2 °F - 55.0 °F 67% 29.96 in 10.0 mi SSW 9.2 mph 16.1 mph N/A   Overcast
10:55 PM 65.5 °F - 55.4 °F 70% 29.95 in 10.0 mi South 8.1 mph - N/A   Overcast
11:15 PM 65.5 °F - 55.8 °F 71% 29.94 in 10.0 mi South 4.6 mph - N/A   Overcast
11:35 PM 65.7 °F - 55.9 °F 71% 29.93 in 10.0 mi SSW 8.1 mph - N/A   Mostly Cloudy
11:55 PM 65.7 °F - 56.3 °F 72% 29.92 in 10.0 mi South 10.4 mph 17.3 mph N/A   Mostly Cloudy